모두
Dimmit County Airport (Carrizo Springs, TX) CZT 기상
|
Carrizo Springs, TX (KCZT)
맑은 하늘
가벼운 바람 |
|
22 °C |
There is no TAF data available at CZT or any nearby airports.
최근 CZT METAR 이력
| Date | Time (CDT) | Flight Rules | Wind Dir. | Speed | Type | Height AGL (ft) | Visibility | Temp (°C) | Temp (°F) | Dew Point (°C) | Dew Point (°F) | Rel. Humid. | Pressure | Density Altitude | Remarks |
|---|---|---|---|---|---|---|---|---|---|---|---|---|---|---|---|
| 02-5월 | 13:15 | VFR | 120° | 5 kt | 10 miles | 22° | 71° | 8° | 46° | 41% | 30.19 in Hg | 1,168 ft | Wind gusting to 14 KT | ||
| 02-5월 | 12:55 | VFR | 60° | 7 kt | 10 miles | 22° | 71° | 8° | 46° | 41% | 30.20 in Hg | 1,158 ft | |||
| 02-5월 | 12:35 | VFR | 90° | 6 kt | 10 miles | 22° | 71° | 7° | 44° | 38% | 30.21 in Hg | 1,148 ft | Wind gusting to 14 KT | ||
| 02-5월 | 12:15 | VFR | 40° | 8 kt | 10 miles | 21° | 69° | 7° | 44° | 40% | 30.21 in Hg | 1,028 ft | |||
| 02-5월 | 11:55 | VFR | 70° | 6 kt | 10 miles | 21° | 69° | 8° | 46° | 43% | 30.22 in Hg | 1,018 ft | |||
| 02-5월 | 11:15 | VFR | 60° | 8 kt | 10 miles | 20° | 68° | 8° | 46° | 46% | 30.22 in Hg | 898 ft | |||
| 02-5월 | 10:55 | VFR | 50° | 6 kt | 10 miles | 19° | 66° | 8° | 46° | 49% | 30.22 in Hg | 778 ft | |||
| 02-5월 | 10:35 | VFR | 50° | 8 kt | 10 miles | 18° | 64° | 8° | 46° | 52% | 30.22 in Hg | 658 ft | |||
| 02-5월 | 10:15 | VFR | 30° | 6 kt | 10 miles | 17° | 62° | 8° | 46° | 55% | 30.21 in Hg | 548 ft | |||
| 02-5월 | 09:55 | VFR | 20° | 6 kt | 10 miles | 17° | 62° | 8° | 46° | 55% | 30.20 in Hg | 558 ft | |||
| 02-5월 | 09:35 | VFR | 30° | 9 kt | 10 miles | 16° | 60° | 8° | 46° | 59% | 30.20 in Hg | 438 ft | |||
| 02-5월 | 09:15 | VFR | 30° | 7 kt | 10 miles | 15° | 59° | 8° | 46° | 63% | 30.20 in Hg | 318 ft | |||
| 02-5월 | 08:55 | VFR | 20° | 6 kt | 10 miles | 15° | 59° | 9° | 48° | 67% | 30.19 in Hg | 328 ft | |||
| 02-5월 | 08:15 | VFR | 360° | 3 kt | 10 miles | 13° | 55° | 12° | 53° | 94% | 30.18 in Hg | 98 ft | |||
| 02-5월 | 07:55 | VFR | 350° | 5 kt | 10 miles | 13° | 55° | 12° | 53° | 94% | 30.17 in Hg | 108 ft | |||
| 02-5월 | 07:35 | VFR | 330° | 4 kt | 10 miles | 12° | 53° | 12° | 53° | 100% | 30.17 in Hg | -12 ft | |||
| 02-5월 | 07:15 | VFR | 330° | 3 kt | 10 miles | 12° | 53° | 12° | 53° | 100% | 30.16 in Hg | -2 ft | |||
| 02-5월 | 06:55 | VFR | 330° | 4 kt | 10 miles | 12° | 53° | 12° | 53° | 100% | 30.15 in Hg | 8 ft | |||
| 02-5월 | 06:35 | VFR | 350° | 4 kt | 10 miles | 12° | 53° | 12° | 53° | 100% | 30.14 in Hg | 18 ft | |||
| 02-5월 | 06:15 | VFR | 340° | 3 kt | 10 miles | 12° | 53° | 12° | 53° | 100% | 30.14 in Hg | 18 ft | |||
| 02-5월 | 05:55 | VFR | 350° | 4 kt | 10 miles | 12° | 53° | 12° | 53° | 100% | 30.13 in Hg | 28 ft | |||
| 02-5월 | 05:15 | VFR | 350° | 3 kt | 10 miles | 12° | 53° | 12° | 53° | 100% | 30.12 in Hg | 38 ft | |||
| 02-5월 | 04:55 | VFR | 340° | 3 kt | 10 miles | 12° | 53° | 12° | 53° | 100% | 30.13 in Hg | 28 ft | |||
| 02-5월 | 04:35 | VFR | 290° | 3 kt | 10 miles | 12° | 53° | 12° | 53° | 100% | 30.13 in Hg | 28 ft |
로그인
| 귀하의 브라우저는 지원되지 않습니다.. 브라우저를 업그레이드하세요 |
